Theta_e
342 340 340 341 343 344 345 345 348 348 346 350 351 352 352 351 351 351 350 349 348 348
342 342 341 342 344 345 346 348 348 348 349 350 350 351 351 351 350 351 349 349 350 350
343 343 344 344 343 344 346 347 348 351 351 349 348 349 347 349 351 351 351 350 350 349
343 343 344 344 344 345 347 348 348 348 348 345 343 344 343 346 351 350 348 348 349 350
344 344 343 344 345 347 346 349 351 349 347 347 345 345 348 350 352 350 349 349 349 349
344 344 344 345 346 347 347 346 348 349 347 346 347 348 349 351 350 350 350 350 349 350
344 345 346 346 346 346 346 346 345 346 348 348 348 348 348 348 348 350 351 352 351 351
344 345 346 345 346 347 346 346 346 345 344 345 346 347 347 347 348 348 348 350 351 351
344 344 344 345 345 347 347 347 347 347 347 347 348 339 338 345 347 349 347 346 349 351
344 344 345 346 346 346 346 348 348 349 349 349 350 332 333 337 345 347 346 347 347 348
343 344 345 345 346 347 347 347 348 349 350 350 345 327 326 333 343 344 345 346 347 346
343 343 343 344 345 346 347 347 346 343 339 338 337 322 321 331 339 340 341 342 345 346
343 343 342 343 344 343 344 340 339 334 332 326 331 317 316 321 328 329 332 335 340 332
346 345 347 342 339 337 335 332 329 326 325 325 322 321 311 312 319 322 322 324 327 337
Wind_Speed
8 6 5 5 4 3 3 3 3 5 5 5 4 4 4 2 3 3 3 5 4 3
8 7 7 7 4 3 4 4 4 5 5 4 4 4 4 3 4 4 4 4 4 3
9 8 6 5 6 6 4 4 4 4 3 3 3 4 3 3 3 4 3 3 4 4
9 8 7 6 5 5 5 5 5 4 4 4 4 4 5 5 4 4 3 3 4 5
8 8 8 8 7 5 5 4 4 4 4 5 6 6 6 5 4 5 5 5 4 6
8 9 9 8 7 6 5 5 4 4 5 5 5 5 6 6 6 6 6 6 5 7
10 9 8 7 7 7 7 6 5 5 6 5 5 5 5 5 6 6 7 7 7 7
8 7 6 6 6 6 6 6 6 6 5 6 7 6 7 7 9 8 8 8 8 8
6 7 7 6 7 6 6 6 6 6 7 7 6 8 12 10 6 7 8 8 8 8
8 8 7 7 6 6 7 5 6 6 6 7 7 7 9 7 6 7 6 8 8 7
9 8 8 7 7 6 5 6 5 5 5 4 2 6 4 3 3 5 7 7 8 8
9 9 8 8 8 6 5 4 3 2 4 3 4 7 7 7 4 6 8 6 7 8
9 9 9 8 6 4 3 5 5 5 4 5 4 8 8 8 4 7 6 8 9 8
9 9 7 6 4 6 7 7 5 5 4 5 5 5 8 9 4 5 6 6 7 7
Wind_Direction
181 186 201 196 194 202 208 220 197 203 221 223 238 238 225 207 225 206 219 225 217 207
188 188 194 204 195 189 200 228 214 214 217 221 211 235 220 223 233 217 198 244 247 258
193 190 189 186 205 209 217 207 234 231 223 216 196 212 237 255 251 233 222 213 204 212
190 193 183 193 205 203 198 212 209 230 175 195 215 222 223 236 252 253 240 254 233 234
184 179 188 198 202 194 210 207 210 211 208 197 201 218 216 233 229 228 243 242 241 252
190 185 194 197 190 189 203 221 226 212 218 221 226 225 227 230 244 242 241 240 235 249
191 190 192 188 185 191 198 214 224 228 233 238 244 245 257 254 249 253 252 251 244 244
187 174 167 183 194 199 204 213 217 222 226 231 234 237 238 238 243 233 245 250 248 245
166 166 182 185 196 199 212 215 215 220 228 237 237 223 226 233 243 243 236 246 253 252
169 172 181 188 187 203 216 210 222 238 232 246 252 253 252 231 232 245 242 246 251 256
180 189 187 189 197 200 196 214 216 229 246 266 28 27 346 293 248 253 250 245 244 241
192 194 187 194 194 193 179 176 167 114 118 112 81 49 20 357 333 288 286 281 260 256
194 195 192 197 180 157 151 134 128 124 101 97 108 89 47 13 329 308 306 300 289 260
194 193 177 140 144 138 127 126 106 94 72 64 45 33 35 23 4 333 317 303 300 296